Starlink 31885

operational
NORAD ID: 59660 Int'l Des: 2024-084 Owner: SPXS Country: US Constellation: starlink
LEOCIRCULAR

Über Starlink 31885

Beschreibung wird geladen...

Live-Position

3D-Globus wird geladen...

Nächste Überflüge

Höhenverlauf

Altitude vs Time

uPlot chart will show altitude changes over time

Zweizeiliger Elementsatz

1 59660U 24084G 25305.66930250 .00000405 00000-0 24264-4 0 9991
2 59660 43.0027 41.3711 0001291 267.9448 92.1256 15.27570223 84836
Epoch: 1. Nov. 2025 • Age: 59 hours

Aktueller Status

Höhe 494.7 km
Geschwindigkeit 7.62 km/s
Subsatellitenpunkt -40.74°S, 177.86°W
Startdatum 6. Mai 2024
Alter 1.4 years
Typ internet

Technische Details

Klassifizierung Payload
Masse 730.00 kg
Trockenmasse 700.00 kg
Gesamtmasse 730.00 kg
Länge 0.30 m
Durchmesser 4.10 m
Spannweite 29.00 m
Form Box + pan
Hersteller SPXS
Bus-Typ Starlink V2M
Phasenstatus In Orbit
Besitzer/Staat SPXS/US

Große Konstellationen

Loading constellations...